TimeEST,TemperatureF,Dew PointF,Humidity,Sea Level PressureIn,VisibilityMPH,Wind Direction,Wind SpeedMPH,Gust SpeedMPH,PrecipitationIn,Events,Conditions,WindDirDegrees,DateUTC
12:29 AM,28.4,24.8,86,30.37,2.5,Calm,Calm,-,N/A,,Clear,0,2013-01-09 05:29:00
12:53 AM,28.0,25.0,88,30.38,2.5,Calm,Calm,-,N/A,,Clear,0,2013-01-09 05:53:00
1:02 AM,28.4,24.8,86,30.37,3.0,Calm,Calm,-,N/A,,Clear,0,2013-01-09 06:02:00
1:19 AM,28.4,24.8,86,30.37,2.5,Calm,Calm,-,N/A,,Clear,0,2013-01-09 06:19:00
1:53 AM,26.1,24.1,92,30.38,2.0,Calm,Calm,-,N/A,,Clear,0,2013-01-09 06:53:00
2:19 AM,26.6,21.2,80,30.36,3.0,Calm,Calm,-,N/A,,Clear,0,2013-01-09 07:19:00
2:28 AM,26.6,23.0,86,30.37,2.5,Calm,Calm,-,N/A,,Clear,0,2013-01-09 07:28:00
2:38 AM,26.6,21.2,80,30.36,3.0,Calm,Calm,-,N/A,,Clear,0,2013-01-09 07:38:00
2:48 AM,26.6,23.0,86,30.36,2.5,Calm,Calm,-,N/A,,Clear,0,2013-01-09 07:48:00
2:53 AM,24.1,21.9,91,30.37,3.0,Calm,Calm,-,N/A,,Clear,0,2013-01-09 07:53:00
3:07 AM,24.8,21.2,86,30.36,2.5,Calm,Calm,-,N/A,,Clear,0,2013-01-09 08:07:00
3:53 AM,26.1,23.0,88,30.36,2.5,Calm,Calm,-,N/A,,Clear,0,2013-01-09 08:53:00
4:53 AM,21.0,19.0,92,30.36,3.0,Calm,Calm,-,N/A,,Clear,0,2013-01-09 09:53:00
5:04 AM,24.8,21.2,86,30.35,2.5,Calm,Calm,-,N/A,,Clear,0,2013-01-09 10:04:00
5:53 AM,24.1,21.0,88,30.35,2.5,Calm,Calm,-,N/A,,Clear,0,2013-01-09 10:53:00
6:53 AM,24.1,21.0,88,30.36,2.5,Calm,Calm,-,N/A,,Clear,0,2013-01-09 11:53:00
7:53 AM,25.0,21.0,85,30.37,1.5,Calm,Calm,-,N/A,,Clear,0,2013-01-09 12:53:00
8:53 AM,27.0,25.0,92,30.37,1.5,SE,3.5,-,N/A,,Clear,130,2013-01-09 13:53:00
9:53 AM,32.0,28.0,85,30.36,1.5,Calm,Calm,-,N/A,,Clear,0,2013-01-09 14:53:00
10:15 AM,35.6,30.2,81,30.34,2.0,Calm,Calm,-,N/A,,Haze,0,2013-01-09 15:15:00
10:43 AM,39.2,33.8,81,30.33,3.0,Calm,Calm,-,N/A,,Haze,0,2013-01-09 15:43:00
10:53 AM,39.9,33.1,77,30.34,3.0,Calm,Calm,-,N/A,,Haze,0,2013-01-09 15:53:00
11:53 AM,43.0,33.1,68,30.31,5.0,WSW,4.6,-,N/A,,Haze,240,2013-01-09 16:53:00
12:53 PM,41.0,34.0,76,30.31,3.0,West,5.8,-,0.00,Rain,Light Rain,280,2013-01-09 17:53:00
1:01 PM,39.2,33.8,81,30.28,2.0,SW,3.5,-,0.00,Rain,Light Rain,230,2013-01-09 18:01:00
1:12 PM,39.2,33.8,81,30.27,3.0,WSW,4.6,-,0.01,Rain,Light Rain,250,2013-01-09 18:12:00
1:53 PM,41.0,36.0,82,30.24,3.0,South,4.6,-,0.01,,Haze,170,2013-01-09 18:53:00
2:53 PM,42.1,36.0,79,30.21,4.0,Calm,Calm,-,0.00,,Haze,0,2013-01-09 19:53:00
3:53 PM,44.1,36.0,73,30.21,5.0,WSW,6.9,-,N/A,,Haze,250,2013-01-09 20:53:00
4:53 PM,39.9,34.0,79,30.23,3.0,WNW,6.9,-,N/A,,Haze,300,2013-01-09 21:53:00
5:53 PM,37.9,33.1,83,30.24,4.0,West,3.5,-,N/A,,Haze,260,2013-01-09 22:53:00
6:53 PM,34.0,30.9,89,30.27,3.0,West,3.5,-,N/A,,Clear,270,2013-01-09 23:53:00
7:53 PM,35.1,30.9,85,30.28,4.0,Calm,Calm,-,N/A,,Clear,0,2013-01-10 00:53:00
9:53 PM,32.0,28.9,88,30.29,4.0,WSW,3.5,-,N/A,,Clear,240,2013-01-10 02:53:00
10:08 PM,30.2,28.4,93,30.28,3.0,Calm,Calm,-,N/A,,Clear,0,2013-01-10 03:08:00
10:16 PM,28.4,26.6,93,30.28,2.0,Calm,Calm,-,N/A,,Clear,0,2013-01-10 03:16:00
10:53 PM,36.0,30.9,82,30.31,4.0,WSW,3.5,-,N/A,,Haze,250,2013-01-10 03:53:00
11:19 PM,30.2,28.4,93,30.31,2.5,Calm,Calm,-,N/A,,Clear,0,2013-01-10 04:19:00
11:30 PM,33.8,30.2,87,30.31,4.0,West,3.5,-,N/A,,Clear,260,2013-01-10 04:30:00
11:53 PM,30.9,28.0,89,30.33,3.0,West,4.6,-,N/A,,Clear,260,2013-01-10 04:53:00